Location: Wien
(48.2082°N, 16.3738°E)
Time: 09:05:42
(UTC+02:00)

UNISAT 6 - Pass Details

Date: 26 April 2024
Orbit: 593 x 668 km, 97.7° (Epoch: 20 May)

Event Time Altitude Azimuth Distance (km) Brightness Sun altitude
Rises 03:49:23 0° 136° (SE) 2,910 ? -16.7°
Reaches altitude 10° 03:51:49 10° 125° (SE) 1,994 ? -16.5°
Maximum altitude 03:55:30 28° 66° (ENE) 1,164 ? -16.0°
Drops below altitude 10° 03:59:09 10° 8° (N) 1,970 ? -15.6°
Sets 04:01:32 0° 357° (N) 2,868 ? -15.3°
